Showing default

NUSAT-40 (C SHOEMAKER), 56943

Orbit data source: Space-Track

NUSAT-40 (C SHOEMAKER), 56943 is a payload satellite owned by URUGUS S.A. (AR) in SSO that was launched on Mon, 12 Jun 2023 UTC via an FALCON 9 launch vehicle from the Air Force Western Test Range (AFWTR). Payload-class satellites include a variety of spacecraft equipped with specific instruments for various scientific and technological missions. These include communications satellites like Starlink; space stations such as the ISS; scientific satellites like the Hubble; Earth observation satellites from companies like Planet Labs, Umbra, and HawkEye 360; GPS; miniature CubeSats for education and research; and military/defense satellites.

Loading next visibility...
Identifier
56943, 2023-084M
Orbit
SSO
Country
Flag of ARAR / ARGN
Related business
Manufacturer
URUGUS S.A.
Mission
Operational Commercial Imaging
Bus & Motor
NEWSAT V, Unknown motor
Mass
41.5 kg wet, 38.5 kg dry
Launch date (UTC)
2023-06-12 (3 years ago)
Launch vehicle
FALCON 9
Launch site
Air Force Western Test Range (AFWTR)
Object type
Payload
Rocket body
Debris
Shape & HBR
Box, 1.0 m
Radar Cross Section
0.542 m², Medium (>0.1 m² and < 1m²)

Expand to show TLE details & history
Last TLE update: 13 hours ago

TLE from 13 hours ago
0 NUSAT-40 (C SHOEMAKER)
1 56943U 23084M   26100.28284000  .00076899  00000-0  76288-3 0  9990
2 56943  97.4794 242.0431 0003872 154.4490 205.6961 15.65540383158151
Epoch: 2026-04-10T06:47Z
TLE epoch observation values (Epoch: 2026-04-10T06:47:17.376Z)
Latitude
-0.00005°
Longitude
-58.29802°
Altitude
377.191 km
Speed
7.682 km/s
True Right ascension
16h 08m 10s
True Declination
0° 00' 00"
Sunlit
Object was in full shadow at epoch
Visualization orbit readout
Latitude
Unknown
Longitude
Unknown
Altitude
Unknown
Speed
Unknown
Apparent Right ascension
Unknown
Apparent Declination
Unknown
Sunlit
N/A
Visualization observer readout
Local Sidereal Time
02:00:45
Azimuth
Unknown
Elevation
Unknown
Doppler factor
Unknown
Orbital elements
Apogee altitude
371.206 km
Perigee altitude
365.981 km
Semi-major axis
6,746.731 km
Eccentricity
0.00039
Inclination
97.4794°
RAAN
242.0431°
Arg. of periapsis
154.449°
True anomaly
205.67687°
Mean anomaly
205.6961°
Eccentric anomaly
205.68648°
Mean motion
3.91654 °/min
Orbital period
91.92 mins
BSTAR
0.00076288
Loading maneuver chart data...
Computing Atmospheric mass density...

Documentation

Showing up to 5 results
|